Time,TemperatureF,DewpointF,PressureIn,WindDirection,WindDirectionDegrees,WindSpeedMPH,WindSpeedGustMPH,Humidity,HourlyPrecipIn,Conditions,Clouds,dailyrainin,SoftwareType,DateUTC
2013-05-11 00:03:00,73.0,72.0,30.07,SSW,198,1.0,3.0,97,99.99,,,-99.99,,2013-05-11 04:03:00,
2013-05-11 00:12:00,73.0,73.0,30.08,SW,222,2.0,4.0,99,99.99,,,-99.99,,2013-05-11 04:12:00,
2013-05-11 00:23:00,73.0,73.0,30.08,SW,222,2.0,4.0,99,99.99,,,-99.99,,2013-05-11 04:23:00,
2013-05-11 00:33:00,73.0,73.0,30.08,SSW,212,3.0,4.0,99,99.99,,,-99.99,,2013-05-11 04:33:00,
2013-05-11 00:43:00,73.0,73.0,30.08,SSW,198,3.0,4.0,100,99.99,,,-99.99,,2013-05-11 04:43:00,
2013-05-11 00:52:00,73.0,73.0,30.08,SSW,198,3.0,4.0,100,99.99,,,-99.99,,2013-05-11 04:52:00,
2013-05-11 01:02:00,73.0,73.0,30.08,SSW,197,3.0,4.0,100,99.99,,,-99.99,,2013-05-11 05:02:00,
2013-05-11 01:12:00,72.0,72.0,30.08,South,180,3.0,3.0,100,99.99,,,-99.99,,2013-05-11 05:12:00,
2013-05-11 01:22:00,72.0,72.0,30.08,South,180,3.0,3.0,100,99.99,,,-99.99,,2013-05-11 05:22:00,
2013-05-11 01:32:00,72.0,72.0,30.07,SSW,201,3.0,4.0,100,99.99,,,-99.99,,2013-05-11 05:32:00,
2013-05-11 01:42:00,72.0,72.0,30.07,SW,217,3.0,4.0,100,99.99,,,-99.99,,2013-05-11 05:42:00,
2013-05-11 01:52:00,72.0,72.0,30.07,SW,217,3.0,4.0,100,99.99,,,-99.99,,2013-05-11 05:52:00,
2013-05-11 02:02:00,72.0,72.0,30.06,South,184,4.0,5.0,100,99.99,,,-99.99,,2013-05-11 06:02:00,
2013-05-11 02:12:00,72.0,72.0,30.06,South,184,4.0,5.0,100,99.99,,,-99.99,,2013-05-11 06:12:00,
2013-05-11 02:21:00,71.0,71.0,30.06,SSE,159,5.0,7.0,100,99.99,,,-99.99,,2013-05-11 06:21:00,
2013-05-11 02:32:00,71.0,71.0,30.05,South,179,5.0,6.0,100,99.99,,,-99.99,,2013-05-11 06:32:00,
2013-05-11 02:42:00,70.0,70.0,30.05,SSE,167,4.0,6.0,100,99.99,,,-99.99,,2013-05-11 06:42:00,
2013-05-11 02:52:00,70.0,70.0,30.05,SSE,167,4.0,6.0,100,99.99,,,-99.99,,2013-05-11 06:52:00,
2013-05-11 03:02:00,70.0,70.0,30.05,SSE,165,4.0,5.0,100,99.99,,,-99.99,,2013-05-11 07:02:00,
2013-05-11 03:12:00,69.0,69.0,30.06,SSE,156,2.0,4.0,100,99.99,,,-99.99,,2013-05-11 07:12:00,
2013-05-11 03:21:00,69.0,69.0,30.06,SSE,156,2.0,4.0,100,99.99,,,-99.99,,2013-05-11 07:21:00,
2013-05-11 03:32:00,69.0,69.0,30.06,South,169,3.0,5.0,100,99.99,,,-99.99,,2013-05-11 07:32:00,
2013-05-11 03:42:00,69.0,69.0,30.05,SSE,166,4.0,6.0,100,99.99,,,-99.99,,2013-05-11 07:42:00,
2013-05-11 03:52:00,69.0,69.0,30.05,SSE,166,4.0,6.0,100,99.99,,,-99.99,,2013-05-11 07:52:00,
2013-05-11 04:01:00,69.0,69.0,30.04,South,176,5.0,6.0,100,99.99,,,-99.99,,2013-05-11 08:01:00,
2013-05-11 04:12:00,69.0,69.0,30.03,SSE,160,5.0,6.0,100,99.99,,,-99.99,,2013-05-11 08:12:00,
2013-05-11 04:21:00,69.0,69.0,30.03,SSE,160,5.0,6.0,100,99.99,,,-99.99,,2013-05-11 08:21:00,
2013-05-11 04:32:00,69.0,69.0,30.02,SSE,167,4.0,7.0,100,99.99,,,-99.99,,2013-05-11 08:32:00,
2013-05-11 04:42:00,69.0,69.0,30.02,South,180,3.0,6.0,100,99.99,,,-99.99,,2013-05-11 08:42:00,
2013-05-11 04:52:00,69.0,69.0,30.02,South,180,3.0,6.0,100,99.99,,,-99.99,,2013-05-11 08:52:00,
2013-05-11 05:01:00,69.0,69.0,30.02,SSW,203,3.0,5.0,100,99.99,,,-99.99,,2013-05-11 09:01:00,
2013-05-11 05:11:00,69.0,69.0,30.02,South,184,3.0,5.0,100,99.99,,,-99.99,,2013-05-11 09:11:00,
2013-05-11 05:21:00,69.0,69.0,30.02,South,184,3.0,5.0,100,99.99,,,-99.99,,2013-05-11 09:21:00,
2013-05-11 05:32:00,69.0,69.0,30.03,SSW,201,2.0,4.0,100,99.99,,,-99.99,,2013-05-11 09:32:00,
2013-05-11 05:42:00,69.0,69.0,30.03,SW,221,1.0,2.0,100,99.99,,,-99.99,,2013-05-11 09:42:00,
2013-05-11 05:53:00,69.0,69.0,30.03,SW,221,1.0,2.0,100,99.99,,,-99.99,,2013-05-11 09:53:00,
2013-05-11 06:03:00,68.0,68.0,30.04,North,0,0.0,0.0,100,99.99,,,-99.99,,2013-05-11 10:03:00,
2013-05-11 06:12:00,68.0,68.0,30.04,North,0,0.0,0.0,100,99.99,,,-99.99,,2013-05-11 10:12:00,
2013-05-11 06:22:00,68.0,68.0,30.04,North,0,0.0,0.0,100,99.99,,,-99.99,,2013-05-11 10:22:00,
2013-05-11 06:33:00,68.0,68.0,30.04,North,0,0.0,0.0,100,99.99,,,-99.99,,2013-05-11 10:33:00,
2013-05-11 06:42:00,68.0,68.0,30.05,North,0,0.0,0.0,100,99.99,,,-99.99,,2013-05-11 10:42:00,
2013-05-11 06:52:00,68.0,68.0,30.05,North,0,0.0,0.0,100,99.99,,,-99.99,,2013-05-11 10:52:00,
2013-05-11 07:02:00,69.0,69.0,30.05,North,0,0.0,0.0,100,99.99,,,-99.99,,2013-05-11 11:02:00,
2013-05-11 07:12:00,69.0,69.0,30.05,North,0,0.0,0.0,100,99.99,,,-99.99,,2013-05-11 11:12:00,
2013-05-11 07:22:00,69.0,69.0,30.05,North,0,0.0,0.0,100,99.99,,,-99.99,,2013-05-11 11:22:00,
2013-05-11 07:32:00,69.0,69.0,30.05,North,0,0.0,0.0,100,99.99,,,-99.99,,2013-05-11 11:32:00,
2013-05-11 07:42:00,70.0,70.0,30.05,South,183,1.0,2.0,100,99.99,,,-99.99,,2013-05-11 11:42:00,
2013-05-11 07:51:00,70.0,70.0,30.05,South,183,1.0,2.0,100,99.99,,,-99.99,,2013-05-11 11:51:00,
2013-05-11 08:01:00,70.0,70.0,30.06,South,170,1.0,3.0,100,99.99,,,-99.99,,2013-05-11 12:01:00,
2013-05-11 08:11:00,71.0,71.0,30.06,SSE,165,1.0,3.0,100,99.99,,,-99.99,,2013-05-11 12:11:00,
2013-05-11 08:22:00,71.0,71.0,30.06,SSE,165,1.0,3.0,100,99.99,,,-99.99,,2013-05-11 12:22:00,
2013-05-11 08:32:00,71.0,71.0,30.06,SSW,207,1.0,3.0,100,99.99,,,-99.99,,2013-05-11 12:32:00,
2013-05-11 08:42:00,73.0,73.0,30.05,South,184,3.0,5.0,100,99.99,,,-99.99,,2013-05-11 12:42:00,
2013-05-11 08:52:00,73.0,73.0,30.05,South,184,3.0,5.0,100,99.99,,,-99.99,,2013-05-11 12:52:00,
2013-05-11 09:02:00,75.0,75.0,30.05,SSE,165,4.0,5.0,100,99.99,,,-99.99,,2013-05-11 13:02:00,
2013-05-11 09:11:00,76.0,76.0,30.05,South,174,3.0,5.0,100,99.99,,,-99.99,,2013-05-11 13:11:00,
2013-05-11 09:21:00,76.0,76.0,30.05,South,174,3.0,5.0,100,99.99,,,-99.99,,2013-05-11 13:21:00,
2013-05-11 09:32:00,78.0,77.0,30.05,SW,219,5.0,8.0,97,99.99,,,-99.99,,2013-05-11 13:32:00,
2013-05-11 09:42:00,78.0,77.0,30.06,SSW,198,4.0,8.0,97,99.99,,,-99.99,,2013-05-11 13:42:00,
2013-05-11 09:52:00,78.0,77.0,30.06,SSW,198,4.0,8.0,97,99.99,,,-99.99,,2013-05-11 13:52:00,
2013-05-11 10:02:00,79.0,75.0,30.07,South,169,4.0,9.0,87,99.99,,,-99.99,,2013-05-11 14:02:00,
2013-05-11 10:11:00,81.0,75.0,30.06,South,184,5.0,11.0,81,99.99,,,-99.99,,2013-05-11 14:11:00,
2013-05-11 10:21:00,81.0,75.0,30.06,South,184,5.0,11.0,81,99.99,,,-99.99,,2013-05-11 14:21:00,
2013-05-11 10:32:00,80.0,73.0,30.07,SW,215,5.0,11.0,79,99.99,,,-99.99,,2013-05-11 14:32:00,
2013-05-11 10:42:00,81.0,71.0,30.06,SSW,207,7.0,13.0,72,99.99,,,-99.99,,2013-05-11 14:42:00,
2013-05-11 10:52:00,81.0,71.0,30.06,SSW,207,7.0,13.0,72,99.99,,,-99.99,,2013-05-11 14:52:00,
2013-05-11 11:01:00,81.0,72.0,30.06,WSW,239,6.0,11.0,73,99.99,,,-99.99,,2013-05-11 15:01:00,
2013-05-11 11:11:00,82.0,71.0,30.06,WSW,248,6.0,9.0,70,99.99,,,-99.99,,2013-05-11 15:11:00,
2013-05-11 11:21:00,82.0,71.0,30.06,WSW,248,6.0,9.0,70,99.99,,,-99.99,,2013-05-11 15:21:00,
2013-05-11 11:32:00,83.0,70.0,30.05,SW,217,7.0,12.0,65,99.99,,,-99.99,,2013-05-11 15:32:00,
2013-05-11 11:43:00,84.0,71.0,30.05,SW,228,6.0,11.0,65,99.99,,,-99.99,,2013-05-11 15:43:00,
2013-05-11 11:53:00,84.0,71.0,30.05,SW,228,6.0,11.0,65,99.99,,,-99.99,,2013-05-11 15:53:00,
2013-05-11 12:03:00,84.0,71.0,30.05,SW,231,7.0,11.0,66,99.99,,,-99.99,,2013-05-11 16:03:00,
2013-05-11 12:12:00,84.0,70.0,30.04,SW,218,6.0,9.0,63,99.99,,,-99.99,,2013-05-11 16:12:00,
2013-05-11 12:23:00,84.0,70.0,30.04,SW,218,6.0,9.0,63,99.99,,,-99.99,,2013-05-11 16:23:00,
2013-05-11 12:33:00,85.0,70.0,30.04,WSW,243,6.0,11.0,61,99.99,,,-99.99,,2013-05-11 16:33:00,
2013-05-11 12:42:00,86.0,70.0,30.04,South,184,6.0,12.0,60,99.99,,,-99.99,,2013-05-11 16:42:00,
2013-05-11 12:52:00,86.0,70.0,30.04,South,184,6.0,12.0,60,99.99,,,-99.99,,2013-05-11 16:52:00,
2013-05-11 13:02:00,86.0,69.0,30.04,WSW,248,7.0,14.0,58,99.99,,,-99.99,,2013-05-11 17:02:00,
2013-05-11 13:12:00,86.0,70.0,30.03,WSW,246,6.0,11.0,59,99.99,,,-99.99,,2013-05-11 17:12:00,
2013-05-11 13:22:00,86.0,70.0,30.03,WSW,246,6.0,11.0,59,99.99,,,-99.99,,2013-05-11 17:22:00,
2013-05-11 13:32:00,87.0,68.0,30.03,WSW,246,6.0,10.0,54,99.99,,,-99.99,,2013-05-11 17:32:00,
2013-05-11 13:42:00,87.0,70.0,30.02,SW,219,7.0,11.0,57,99.99,,,-99.99,,2013-05-11 17:42:00,
2013-05-11 13:52:00,87.0,70.0,30.02,SW,219,7.0,11.0,57,99.99,,,-99.99,,2013-05-11 17:52:00,
2013-05-11 14:01:00,84.0,73.0,30.03,NW,312,8.0,13.0,69,99.99,,,-99.99,,2013-05-11 18:01:00,
2013-05-11 14:12:00,79.0,75.0,30.03,NNW,332,8.0,12.0,88,99.99,,,-99.99,,2013-05-11 18:12:00,
2013-05-11 14:21:00,79.0,75.0,30.03,NNW,332,8.0,12.0,88,99.99,,,-99.99,,2013-05-11 18:21:00,
2013-05-11 14:32:00,77.0,76.0,30.02,WNW,293,3.0,5.0,97,99.99,,,-99.99,,2013-05-11 18:32:00,
2013-05-11 14:42:00,79.0,79.0,30.02,NNW,328,2.0,3.0,100,99.99,,,-99.99,,2013-05-11 18:42:00,
2013-05-11 14:52:00,79.0,79.0,30.02,NNW,328,2.0,3.0,100,99.99,,,-99.99,,2013-05-11 18:52:00,
2013-05-11 15:02:00,80.0,80.0,30.01,NNW,335,1.0,5.0,100,99.99,,,-99.99,,2013-05-11 19:02:00,
2013-05-11 15:11:00,80.0,78.0,30.01,NE,55,2.0,3.0,95,99.99,,,-99.99,,2013-05-11 19:11:00,
2013-05-11 15:21:00,80.0,78.0,30.01,NE,55,2.0,3.0,95,99.99,,,-99.99,,2013-05-11 19:21:00,
2013-05-11 15:32:00,81.0,79.0,30.01,NNE,27,0.0,1.0,93,99.99,,,-99.99,,2013-05-11 19:32:00,
2013-05-11 15:42:00,84.0,74.0,30.00,North,7,0.0,2.0,72,99.99,,,-99.99,,2013-05-11 19:42:00,
2013-05-11 15:52:00,84.0,74.0,30.00,North,7,0.0,2.0,72,99.99,,,-99.99,,2013-05-11 19:52:00,
2013-05-11 16:02:00,84.0,73.0,30.00,North,359,1.0,4.0,69,99.99,,,-99.99,,2013-05-11 20:02:00,
2013-05-11 16:12:00,85.0,71.0,29.99,WSW,252,5.0,11.0,63,99.99,,,-99.99,,2013-05-11 20:12:00,
2013-05-11 16:22:00,85.0,71.0,29.99,WSW,252,5.0,11.0,63,99.99,,,-99.99,,2013-05-11 20:22:00,
2013-05-11 16:32:00,86.0,69.0,29.99,WSW,255,10.0,15.0,57,99.99,,,-99.99,,2013-05-11 20:32:00,
2013-05-11 16:42:00,86.0,68.0,29.99,West,270,9.0,16.0,56,99.99,,,-99.99,,2013-05-11 20:42:00,
2013-05-11 16:52:00,86.0,68.0,29.99,West,270,9.0,16.0,56,99.99,,,-99.99,,2013-05-11 20:52:00,
2013-05-11 17:02:00,86.0,68.0,29.99,West,271,10.0,18.0,55,99.99,,,-99.99,,2013-05-11 21:02:00,
2013-05-11 17:11:00,87.0,69.0,29.99,West,264,10.0,18.0,55,99.99,,,-99.99,,2013-05-11 21:11:00,
2013-05-11 17:21:00,87.0,69.0,29.99,West,264,10.0,18.0,55,99.99,,,-99.99,,2013-05-11 21:21:00,
2013-05-11 17:33:00,87.0,69.0,29.99,WNW,285,12.0,22.0,55,99.99,,,-99.99,,2013-05-11 21:33:00,
2013-05-11 17:43:00,87.0,69.0,29.99,WNW,285,12.0,22.0,55,99.99,,,-99.99,,2013-05-11 21:43:00,
2013-05-11 17:52:00,86.0,69.0,30.00,West,276,12.0,18.0,57,99.99,,,-99.99,,2013-05-11 21:52:00,
2013-05-11 18:02:00,85.0,69.0,30.00,West,280,11.0,19.0,58,99.99,,,-99.99,,2013-05-11 22:02:00,
2013-05-11 18:13:00,84.0,68.0,30.00,West,267,11.0,18.0,59,99.99,,,-99.99,,2013-05-11 22:13:00,
2013-05-11 18:23:00,84.0,68.0,30.00,West,267,11.0,18.0,59,99.99,,,-99.99,,2013-05-11 22:23:00,
2013-05-11 18:33:00,84.0,70.0,30.00,West,262,9.0,14.0,63,99.99,,,-99.99,,2013-05-11 22:33:00,
2013-05-11 18:42:00,84.0,70.0,30.00,West,278,10.0,15.0,63,99.99,,,-99.99,,2013-05-11 22:42:00,
2013-05-11 18:52:00,84.0,70.0,30.00,West,278,10.0,15.0,63,99.99,,,-99.99,,2013-05-11 22:52:00,
2013-05-11 19:02:00,84.0,70.0,30.01,WSW,256,9.0,15.0,63,99.99,,,-99.99,,2013-05-11 23:02:00,
2013-05-11 19:12:00,83.0,71.0,30.00,West,274,8.0,13.0,67,99.99,,,-99.99,,2013-05-11 23:12:00,
2013-05-11 19:22:00,83.0,71.0,30.00,West,274,8.0,13.0,67,99.99,,,-99.99,,2013-05-11 23:22:00,
2013-05-11 19:32:00,82.0,70.0,30.01,West,280,9.0,15.0,68,99.99,,,-99.99,,2013-05-11 23:32:00,
2013-05-11 19:42:00,81.0,71.0,30.01,West,273,7.0,14.0,72,99.99,,,-99.99,,2013-05-11 23:42:00,
2013-05-11 19:52:00,81.0,71.0,30.01,West,273,7.0,14.0,72,99.99,,,-99.99,,2013-05-11 23:52:00,
2013-05-11 20:01:00,80.0,72.0,30.01,WNW,290,7.0,12.0,78,99.99,,,-99.99,,2013-05-12 00:01:00,
2013-05-11 20:12:00,80.0,72.0,30.01,WNW,290,7.0,12.0,78,99.99,,,-99.99,,2013-05-12 00:12:00,
2013-05-11 20:21:00,79.0,74.0,30.02,NW,308,6.0,10.0,84,99.99,,,-99.99,,2013-05-12 00:21:00,
2013-05-11 20:32:00,79.0,75.0,30.03,WNW,293,7.0,11.0,89,99.99,,,-99.99,,2013-05-12 00:32:00,
2013-05-11 20:42:00,79.0,77.0,30.03,WNW,298,6.0,9.0,93,99.99,,,-99.99,,2013-05-12 00:42:00,
2013-05-11 20:52:00,79.0,77.0,30.03,WNW,298,6.0,9.0,93,99.99,,,-99.99,,2013-05-12 00:52:00,
2013-05-11 21:01:00,78.0,76.0,30.03,WNW,290,5.0,8.0,94,99.99,,,-99.99,,2013-05-12 01:01:00,
2013-05-11 21:11:00,78.0,77.0,30.03,West,276,4.0,6.0,97,99.99,,,-99.99,,2013-05-12 01:11:00,
2013-05-11 21:21:00,78.0,77.0,30.03,West,276,4.0,6.0,97,99.99,,,-99.99,,2013-05-12 01:21:00,
2013-05-11 21:32:00,78.0,77.0,30.03,West,266,3.0,5.0,98,99.99,,,-99.99,,2013-05-12 01:32:00,
2013-05-11 21:42:00,77.0,77.0,30.04,WSW,252,3.0,5.0,99,99.99,,,-99.99,,2013-05-12 01:42:00,
2013-05-11 21:52:00,77.0,77.0,30.04,WSW,252,3.0,5.0,99,99.99,,,-99.99,,2013-05-12 01:52:00,
2013-05-11 22:01:00,76.0,76.0,30.04,North,6,3.0,6.0,100,99.99,,,-99.99,,2013-05-12 02:01:00,
2013-05-11 22:11:00,75.0,73.0,30.04,North,353,2.0,7.0,95,99.99,,,-99.99,,2013-05-12 02:11:00,
2013-05-11 22:22:00,75.0,73.0,30.04,North,353,2.0,7.0,95,99.99,,,-99.99,,2013-05-12 02:22:00,
2013-05-11 22:32:00,75.0,73.0,30.04,North,10,3.0,5.0,94,99.99,,,-99.99,,2013-05-12 02:32:00,
2013-05-11 22:42:00,74.0,72.0,30.05,NE,39,3.0,5.0,94,99.99,,,-99.99,,2013-05-12 02:42:00,
2013-05-11 22:52:00,74.0,72.0,30.05,NE,39,3.0,5.0,94,99.99,,,-99.99,,2013-05-12 02:52:00,
2013-05-11 23:01:00,74.0,72.0,30.05,ENE,70,0.0,2.0,95,99.99,,,-99.99,,2013-05-12 03:01:00,
2013-05-11 23:11:00,73.0,72.0,30.05,North,0,0.0,0.0,96,99.99,,,-99.99,,2013-05-12 03:11:00,
2013-05-11 23:22:00,73.0,72.0,30.05,North,0,0.0,0.0,96,99.99,,,-99.99,,2013-05-12 03:22:00,
2013-05-11 23:33:00,72.0,72.0,30.05,North,0,0.0,0.0,99,99.99,,,-99.99,,2013-05-12 03:33:00,
2013-05-11 23:43:00,72.0,72.0,30.05,North,0,0.0,0.0,100,99.99,,,-99.99,,2013-05-12 03:43:00,
2013-05-11 23:53:00,72.0,72.0,30.05,North,0,0.0,0.0,100,99.99,,,-99.99,,2013-05-12 03:53:00,